星链-4535 (STARLINK-4535 )

导读

STARLINK-4535是美国SpaceX公司星链(Starlink)星座的卫星,于2022年8月10日发射升空,星链项目旨在为全球偏远地区提供低延迟高速宽带互联网服务。该卫星为低轨量产通信卫星,搭载Ku/Ka波段通信载荷,配备氪工质霍尔推进器,具备自主避撞能力,寿命末期会主动离轨坠入大气层烧毁,服务全球互联。

基本信息
目录编号:
53392
目录名称:
STARLINK-4535
国际标识:
2022-097E
轨道中心:
EARTH
卫星名称:
星链-4535
卫星全名:
星链-4535 (STARLINK-4535 )
卫星状态:
在轨 (已飞行1486 天)
发射日期:
2022-08-10 UTC
国别 :
美国 (US)
星等 :
--
轨道信息
数据来源 国际轨道数据 AOE轨道数据
星历时间 2026-09-03T18:39:06+0800
19小时前
查看轨道信息
2026-08-31T02:00:00+0800
4天前
查看轨道信息
半长轴 6848.847km 6848.814km
偏心率 0.0000977 0.0001101
轨道倾角 53.162° 53.162°
近地点辐角 74.190° 67.163°
升交点赤经 38.767° 55.968°
平近点角 285.921° 73.349°
近地点 470.04km 469.922km
远地点 471.38km 471.432km
周期 94.013分钟 94.012分钟
每日圈数 15.317103 15.317212
详细信息
固有亮度:
5
最大亮度:
2.5
卫星平台:
Starlink v1.5
覆盖范围:
全球
运营商:
太空探索技术公司
运营商所在国:
美国
制造商(研发单位):
太空探索技术公司
制造商所在国:
美国
使用方式:
暂无
卫星简介
星链(Starlink)计划是由太空探索技术公司(SpaceX)提出的一个巨型低轨卫星互联网星座项目,计划在2019年至2024年间在太空搭建由约1.2万颗卫星组成的“星链”网络,其中1584颗将部署在地球上空550千米处的近地轨道,并从2020年开始工作。该卫星仍在工作。
2D轨道图
3D轨道图
轨道高度分析图
轨道倾角分析图
轨道综合分析图
查看轨道综合分析图
交会数据列表
事件ID 空间交会对象 最接近时刻(TCA) 交会距离 交会风险概率(CRP) 交会风险指数(CRI) 操作
CDM_260904-041605-339206-528321
2026-09-04T
04:16:07+0000
2.950 km
极远距离
1.206105E-6 低风险 0.37
CDM_260904-050205-339206-753421
2026-09-04T
05:02:46+0000
2.960 km
极远距离
1.191139E-6 低风险 0.37
CDM_260904-031604-284205-339222
2026-09-04T
03:16:32+0000
2.535 km
极远距离
1.097947E-6 低风险 0.36
CDM_260904-005504-284205-339222
2026-09-04T
00:55:30+0000
2.955 km
极远距离
8.857107E-7 极低风险 0.34